Location: Anna District 4 Election Precinct
(37.4833°N, 89.2195°W)
Time: 01:49:40
(UTC+00:00)

NOAA 12 - Pass Details

Date: 15 March 2021
Orbit: 795 x 815 km, 98.5° (Epoch: 11 April)

Event Time Altitude Azimuth Distance (km) Brightness Sun altitude
Rises 00:47:25 0° 214° (SW) 3,320 7.7 -9.5°
Reaches altitude 10° 00:51:03 10° 240° (WSW) 2,398 7.5 -10.2°
Maximum altitude 00:53:35 13° 269° (W) 2,166 7.8 -10.7°
Drops below altitude 10° 00:56:08 10° 298° (WNW) 2,408 7.8 -11.2°
Sets 00:59:50 0° 324° (NW) 3,347 8.0 -12.0°
